| time (UTC) | temp C | wind direction | speed KPH | gust KPH | rain 1hr cm | rain 24hr cm | rain mn cm | humidity % | barometer mb |
| 20260504130552 | 10 | 123 | 3.2 | 9.7 | 0.00 | 0.00 | 0.00 | 67 | 1001.1 |
| 20260504110552 | 9 | 260 | 1.6 | 6.4 | 0.00 | 0.00 | 0.00 | 66 | 999.6 |
| 20260504110119 | 10 | 257 | 0.0 | 6.4 | 0.00 | 0.00 | 0.00 | 65 | 999.7 |
| 20260504100547 | 13 | 84 | 4.8 | 16.1 | 0.00 | 0.00 | 0.00 | 56 | 998.8 |
| 20260504100103 | 13 | 149 | 4.8 | 22.5 | 0.00 | 0.00 | 0.00 | 55 | 998.7 |
| 20260504090121 | 15 | 252 | 20.9 | 41.8 | 0.00 | 0.00 | 0.00 | 46 | 996.9 |
| 20260504081556 | 15 | 220 | 27.4 | 41.8 | 0.00 | 0.00 | 0.00 | 43 | 997.1 |
| 20260504081048 | 15 | 235 | 25.7 | 43.5 | 0.00 | 0.00 | 0.00 | 43 | 997.2 |
| 20260504080551 | 15 | 223 | 22.5 | 43.5 | 0.00 | 0.00 | 0.00 | 43 | 997.2 |
| 20260504050548 | 11 | 205 | 6.4 | 12.9 | 0.00 | 0.00 | 0.00 | 52 | 1001.0 |
| 20260504045550 | 11 | 231 | 6.4 | 12.9 | 0.00 | 0.00 | 0.00 | 53 | 1001.3 |
| 20260504045049 | 11 | 219 | 8.0 | 12.9 | 0.00 | 0.00 | 0.00 | 52 | 1001.3 |
| 20260504044600 | 11 | 196 | 6.4 | 14.5 | 0.00 | 0.00 | 0.00 | 51 | 1001.3 |
| 20260504044047 | 11 | 215 | 8.0 | 14.5 | 0.00 | 0.00 | 0.00 | 52 | 1001.4 |
| 20260504043547 | 10 | 220 | 8.0 | 12.9 | 0.00 | 0.00 | 0.00 | 52 | 1001.6 |
| 20260504043054 | 10 | 200 | 4.8 | 11.3 | 0.00 | 0.00 | 0.00 | 53 | 1001.6 |
| 20260504042548 | 10 | 196 | 4.8 | 12.9 | 0.00 | 0.00 | 0.00 | 53 | 1001.7 |
| 20260504042049 | 10 | 196 | 4.8 | 12.9 | 0.00 | 0.00 | 0.00 | 53 | 1001.7 |
| 20260504041553 | 10 | 198 | 6.4 | 12.9 | 0.00 | 0.00 | 0.00 | 53 | 1002.0 |
| 20260504041048 | 10 | 186 | 8.0 | 12.9 | 0.00 | 0.00 | 0.00 | 53 | 1002.2 |
| 20260504040548 | 10 | 219 | 8.0 | 12.9 | 0.00 | 0.00 | 0.00 | 53 | 1002.3 |
| 20260504040052 | 10 | 213 | 6.4 | 11.3 | 0.00 | 0.00 | 0.00 | 53 | 1002.4 |
| 20260504035548 | 10 | 200 | 4.8 | 11.3 | 0.00 | 0.00 | 0.00 | 53 | 1002.5 |
| 20260504035048 | 10 | 196 | 3.2 | 12.9 | 0.00 | 0.00 | 0.00 | 52 | 1002.6 |
| 20260504034559 | 11 | 215 | 4.8 | 12.9 | 0.00 | 0.00 | 0.00 | 51 | 1002.7 |
| 20260504034047 | 11 | 212 | 6.4 | 12.9 | 0.00 | 0.00 | 0.00 | 51 | 1002.8 |
| 20260504033548 | 11 | 218 | 4.8 | 12.9 | 0.00 | 0.00 | 0.00 | 51 | 1002.8 |
| 20260504033103 | 11 | 198 | 4.8 | 12.9 | 0.00 | 0.00 | 0.00 | 50 | 1002.9 |
| 20260504032551 | 11 | 209 | 6.4 | 11.3 | 0.00 | 0.00 | 0.00 | 50 | 1003.1 |
| 20260504032048 | 11 | 218 | 6.4 | 14.5 | 0.00 | 0.00 | 0.00 | 50 | 1003.2 |
| 20260504031558 | 11 | 204 | 8.0 | 14.5 | 0.00 | 0.00 | 0.00 | 50 | 1003.3 |
| 20260504031047 | 11 | 188 | 6.4 | 11.3 | 0.00 | 0.00 | 0.00 | 50 | 1003.4 |
| 20260504030551 | 11 | 212 | 4.8 | 11.3 | 0.00 | 0.00 | 0.00 | 50 | 1003.5 |
| 20260504030059 | 11 | 194 | 4.8 | 11.3 | 0.00 | 0.00 | 0.00 | 51 | 1003.5 |
| 20260504025548 | 11 | 221 | 4.8 | 11.3 | 0.00 | 0.00 | 0.00 | 50 | 1003.7 |
| 20260504025048 | 12 | 202 | 3.2 | 11.3 | 0.00 | 0.00 | 0.00 | 49 | 1003.8 |
| 20260504024605 | 12 | 227 | 6.4 | 12.9 | 0.00 | 0.00 | 0.00 | 48 | 1003.8 |
| 20260504024048 | 12 | 211 | 6.4 | 14.5 | 0.00 | 0.00 | 0.00 | 47 | 1003.9 |
| 20260504023548 | 12 | 234 | 8.0 | 14.5 | 0.00 | 0.00 | 0.00 | 46 | 1003.9 |
| 20260504023059 | 13 | 228 | 8.0 | 12.9 | 0.00 | 0.00 | 0.00 | 45 | 1004.0 |
| 20260504022548 | 13 | 232 | 6.4 | 12.9 | 0.00 | 0.00 | 0.00 | 45 | 1004.0 |
| 20260504022052 | 13 | 225 | 6.4 | 11.3 | 0.00 | 0.00 | 0.00 | 44 | 1004.0 |
| 20260504021557 | 13 | 223 | 4.8 | 9.7 | 0.00 | 0.00 | 0.00 | 44 | 1004.2 |
| 20260504021047 | 14 | 225 | 6.4 | 11.3 | 0.00 | 0.00 | 0.00 | 43 | 1004.1 |
| 20260504020548 | 14 | 232 | 6.4 | 11.3 | 0.00 | 0.00 | 0.00 | 41 | 1004.0 |
| 20260504020054 | 15 | 238 | 3.2 | 11.3 | 0.00 | 0.00 | 0.00 | 40 | 1004.0 |
| 20260504015548 | 15 | 227 | 3.2 | 8.0 | 0.00 | 0.00 | 0.00 | 39 | 1004.2 |
| 20260504015051 | 15 | 223 | 1.6 | 6.4 | 0.00 | 0.00 | 0.00 | 38 | 1004.1 |
| 20260504014555 | 16 | 230 | 1.6 | 4.8 | 0.00 | 0.00 | 0.00 | 37 | 1004.0 |
| 20260504014047 | 16 | 230 | 0.0 | 4.8 | 0.00 | 0.00 | 0.00 | 37 | 1004.1 |
| 20260504013547 | 16 | 230 | 1.6 | 3.2 | 0.00 | 0.00 | 0.00 | 37 | 1004.2 |
| 20260504013057 | 17 | 230 | 1.6 | 4.8 | 0.00 | 0.00 | 0.00 | 36 | 1004.4 |
| 20260504012551 | 17 | 263 | 0.0 | 4.8 | 0.00 | 0.00 | 0.00 | 36 | 1004.4 |
| 20260504012048 | 17 | 263 | 1.6 | 6.4 | 0.00 | 0.00 | 0.00 | 34 | 1004.4 |
| 20260504011552 | 18 | 263 | 3.2 | 9.7 | 0.00 | 0.00 | 0.00 | 33 | 1004.4 |
| 20260504011049 | 18 | 250 | 4.8 | 11.3 | 0.00 | 0.00 | 0.00 | 34 | 1004.6 |
| 20260504010547 | 18 | 259 | 4.8 | 14.5 | 0.00 | 0.00 | 0.00 | 33 | 1004.6 |
| 20260504010058 | 18 | 268 | 4.8 | 14.5 | 0.00 | 0.00 | 0.00 | 33 | 1004.6 |
| 20260504005548 | 19 | 262 | 4.8 | 14.5 | 0.00 | 0.00 | 0.00 | 32 | 1004.7 |
| 20260504005048 | 19 | 262 | 6.4 | 16.1 | 0.00 | 0.00 | 0.00 | 31 | 1004.8 |
| 20260504004553 | 20 | 269 | 8.0 | 19.3 | 0.00 | 0.00 | 0.00 | 30 | 1004.7 |
| 20260504004047 | 20 | 252 | 11.3 | 19.3 | 0.00 | 0.00 | 0.00 | 29 | 1004.9 |
| 20260504003552 | 20 | 263 | 11.3 | 17.7 | 0.00 | 0.00 | 0.00 | 29 | 1005.0 |
| 20260504003052 | 20 | 270 | 9.7 | 17.7 | 0.00 | 0.00 | 0.00 | 29 | 1005.0 |
| 20260504002547 | 20 | 250 | 11.3 | 20.9 | 0.00 | 0.00 | 0.00 | 29 | 1005.0 |
| 20260504002048 | 20 | 284 | 12.9 | 20.9 | 0.00 | 0.00 | 0.00 | 29 | 1005.0 |
| 20260504001610 | 20 | 256 | 11.3 | 20.9 | 0.00 | 0.00 | 0.00 | 28 | 1005.0 |
| 20260504001048 | 21 | 269 | 11.3 | 22.5 | 0.00 | 0.00 | 0.00 | 28 | 1005.1 |
| 20260504000550 | 21 | 259 | 11.3 | 24.1 | 0.00 | 0.00 | 0.00 | 27 | 1005.1 |
| 20260504000052 | 21 | 267 | 12.9 | 24.1 | 0.00 | 0.00 | 0.00 | 27 | 1005.1 |
| 20260503235549 | 21 | 275 | 14.5 | 24.1 | 0.00 | 0.00 | 0.00 | 26 | 1005.1 |
| 20260503235050 | 21 | 273 | 14.5 | 27.4 | 0.00 | 0.00 | 0.00 | 26 | 1005.3 |
| 20260503234550 | 21 | 267 | 12.9 | 27.4 | 0.00 | 0.00 | 0.00 | 26 | 1005.3 |
| 20260503234047 | 21 | 251 | 11.3 | 24.1 | 0.00 | 0.00 | 0.00 | 26 | 1005.3 |
| 20260503233547 | 21 | 263 | 11.3 | 19.3 | 0.00 | 0.00 | 0.00 | 25 | 1005.3 |
| 20260503233053 | 21 | 279 | 8.0 | 19.3 | 0.00 | 0.00 | 0.00 | 25 | 1005.5 |
| 20260503232551 | 21 | 302 | 8.0 | 17.7 | 0.00 | 0.00 | 0.00 | 26 | 1005.5 |
| 20260503232047 | 21 | 242 | 9.7 | 16.1 | 0.00 | 0.00 | 0.00 | 25 | 1005.6 |
| 20260503231550 | 21 | 230 | 9.7 | 16.1 | 0.00 | 0.00 | 0.00 | 27 | 1005.6 |
| 20260503231047 | 21 | 247 | 9.7 | 24.1 | 0.00 | 0.00 | 0.00 | 27 | 1005.6 |
| 20260503230547 | 21 | 257 | 4.8 | 24.1 | 0.00 | 0.00 | 0.00 | 26 | 1005.7 |
| 20260503230054 | 21 | 254 | 11.3 | 24.1 | 0.00 | 0.00 | 0.00 | 25 | 1005.8 |
| 20260503225547 | 21 | 266 | 12.9 | 24.1 | 0.00 | 0.00 | 0.00 | 24 | 1005.9 |
| 20260503225048 | 21 | 256 | 11.3 | 24.1 | 0.00 | 0.00 | 0.00 | 26 | 1005.9 |
| 20260503224554 | 21 | 227 | 8.0 | 27.4 | 0.00 | 0.00 | 0.00 | 26 | 1005.9 |
| 20260503224048 | 22 | 242 | 12.9 | 27.4 | 0.00 | 0.00 | 0.00 | 24 | 1006.1 |
| 20260503223549 | 22 | 261 | 9.7 | 22.5 | 0.00 | 0.00 | 0.00 | 26 | 1006.1 |
| 20260503223053 | 22 | 237 | 12.9 | 22.5 | 0.00 | 0.00 | 0.00 | 27 | 1006.1 |
| 20260503222551 | 22 | 313 | 6.4 | 24.1 | 0.00 | 0.00 | 0.00 | 26 | 1006.1 |
| 20260503222048 | 21 | 261 | 12.9 | 30.6 | 0.00 | 0.00 | 0.00 | 27 | 1006.3 |
| 20260503221554 | 22 | 257 | 17.7 | 30.6 | 0.00 | 0.00 | 0.00 | 24 | 1006.2 |
| 20260503221050 | 22 | 344 | 8.0 | 20.9 | 0.00 | 0.00 | 0.00 | 25 | 1006.2 |
| 20260503220547 | 22 | 238 | 11.3 | 20.9 | 0.00 | 0.00 | 0.00 | 26 | 1006.4 |
| 20260503220113 | 22 | 338 | 6.4 | 19.3 | 0.00 | 0.00 | 0.00 | 29 | 1006.5 |
| 20260503215546 | 22 | 242 | 9.7 | 20.9 | 0.00 | 0.00 | 0.00 | 27 | 1006.6 |
| 20260503215047 | 22 | 19 | 4.8 | 20.9 | 0.00 | 0.00 | 0.00 | 29 | 1006.6 |
| 20260503214550 | 22 | 269 | 9.7 | 22.5 | 0.00 | 0.00 | 0.00 | 29 | 1006.6 |
| 20260503214049 | 22 | 302 | 8.0 | 22.5 | 0.00 | 0.00 | 0.00 | 29 | 1006.7 |
| 20260503213547 | 22 | 234 | 3.2 | 20.9 | 0.00 | 0.00 | 0.00 | 30 | 1006.7 |
| 20260503213053 | 21 | 78 | 4.8 | 20.9 | 0.00 | 0.00 | 0.00 | 28 | 1006.8 |
| 20260503212548 | 21 | 279 | 8.0 | 19.3 | 0.00 | 0.00 | 0.00 | 32 | 1006.9 |
| 20260503212047 | 21 | 258 | 8.0 | 27.4 | 0.00 | 0.00 | 0.00 | 28 | 1007.0 |
| 20260503211604 | 21 | 242 | 8.0 | 27.4 | 0.00 | 0.00 | 0.00 | 28 | 1007.0 |
| 20260503211049 | 21 | 248 | 14.5 | 27.4 | 0.00 | 0.00 | 0.00 | 30 | 1007.0 |
| 20260503210547 | 21 | 273 | 16.1 | 27.4 | 0.00 | 0.00 | 0.00 | 31 | 1007.0 |
| 20260503210056 | 21 | 355 | 12.9 | 24.1 | 0.00 | 0.00 | 0.00 | 31 | 1007.2 |
| 20260503205547 | 21 | 267 | 14.5 | 24.1 | 0.00 | 0.00 | 0.00 | 31 | 1007.3 |
| 20260503205048 | 21 | 247 | 11.3 | 24.1 | 0.00 | 0.00 | 0.00 | 31 | 1007.3 |
| 20260503204556 | 21 | 234 | 4.8 | 20.9 | 0.00 | 0.00 | 0.00 | 30 | 1007.6 |
| 20260503204046 | 21 | 236 | 8.0 | 17.7 | 0.00 | 0.00 | 0.00 | 31 | 1007.6 |
| 20260503203547 | 21 | 155 | 4.8 | 16.1 | 0.00 | 0.00 | 0.00 | 32 | 1007.7 |
| 20260503203059 | 21 | 261 | 4.8 | 17.7 | 0.00 | 0.00 | 0.00 | 29 | 1007.7 |
| 20260503202547 | 21 | 284 | 6.4 | 20.9 | 0.00 | 0.00 | 0.00 | 28 | 1007.9 |
| 20260503202047 | 21 | 206 | 9.7 | 20.9 | 0.00 | 0.00 | 0.00 | 29 | 1008.1 |
| 20260503201556 | 21 | 260 | 11.3 | 17.7 | 0.00 | 0.00 | 0.00 | 31 | 1008.3 |
| 20260503201053 | 21 | 240 | 6.4 | 22.5 | 0.00 | 0.00 | 0.00 | 32 | 1008.3 |
| 20260503200549 | 21 | 26 | 6.4 | 22.5 | 0.00 | 0.00 | 0.00 | 31 | 1008.4 |
| 20260503200053 | 21 | 261 | 8.0 | 22.5 | 0.00 | 0.00 | 0.00 | 31 | 1008.3 |
| 20260503195547 | 21 | 15 | 4.8 | 17.7 | 0.00 | 0.00 | 0.00 | 33 | 1008.5 |
| 20260503195048 | 21 | 252 | 4.8 | 22.5 | 0.00 | 0.00 | 0.00 | 33 | 1008.7 |
| 20260503194557 | 21 | 279 | 12.9 | 22.5 | 0.00 | 0.00 | 0.00 | 32 | 1008.6 |
| 20260503194047 | 21 | 25 | 3.2 | 12.9 | 0.00 | 0.00 | 0.00 | 34 | 1008.7 |
| 20260503193547 | 21 | 352 | 3.2 | 16.1 | 0.00 | 0.00 | 0.00 | 34 | 1008.7 |
| 20260503193113 | 21 | 296 | 4.8 | 16.1 | 0.00 | 0.00 | 0.00 | 33 | 1008.8 |
| 20260503192546 | 21 | 333 | 4.8 | 20.9 | 0.00 | 0.00 | 0.00 | 32 | 1008.9 |
| 20260503192048 | 20 | 271 | 3.2 | 20.9 | 0.00 | 0.00 | 0.00 | 35 | 1008.8 |
| 20260503191557 | 21 | 268 | 6.4 | 25.7 | 0.00 | 0.00 | 0.00 | 33 | 1009.1 |
| 20260503191047 | 20 | 84 | 4.8 | 25.7 | 0.00 | 0.00 | 0.00 | 33 | 1009.2 |
| 20260503190546 | 20 | 294 | 6.4 | 17.7 | 0.00 | 0.00 | 0.00 | 34 | 1009.3 |
| 20260503190052 | 20 | 251 | 4.8 | 16.1 | 0.00 | 0.00 | 0.00 | 34 | 1009.3 |
| 20260503185545 | 20 | 271 | 3.2 | 14.5 | 0.00 | 0.00 | 0.00 | 37 | 1009.4 |
| 20260503185049 | 20 | 223 | 4.8 | 16.1 | 0.00 | 0.00 | 0.00 | 39 | 1009.5 |
| 20260503184552 | 20 | 329 | 4.8 | 30.6 | 0.00 | 0.00 | 0.00 | 41 | 1009.6 |
| 20260503184048 | 19 | 94 | 6.4 | 30.6 | 0.00 | 0.00 | 0.00 | 39 | 1009.6 |
| 20260503183548 | 19 | 351 | 8.0 | 22.5 | 0.00 | 0.00 | 0.00 | 36 | 1009.8 |
| 20260503183104 | 19 | 76 | 11.3 | 22.5 | 0.00 | 0.00 | 0.00 | 36 | 1009.9 |
| 20260503182547 | 19 | 28 | 4.8 | 22.5 | 0.00 | 0.00 | 0.00 | 35 | 1010.0 |
| 20260503182047 | 19 | 352 | 6.4 | 22.5 | 0.00 | 0.00 | 0.00 | 33 | 1010.1 |
| 20260503181622 | 19 | 61 | 6.4 | 14.5 | 0.00 | 0.00 | 0.00 | 34 | 1010.0 |
| 20260503181047 | 19 | 248 | 3.2 | 16.1 | 0.00 | 0.00 | 0.00 | 34 | 1010.3 |
| 20260503180552 | 19 | 313 | 6.4 | 16.1 | 0.00 | 0.00 | 0.00 | 35 | 1010.4 |
| 20260503180124 | 19 | 258 | 4.8 | 16.1 | 0.00 | 0.00 | 0.00 | 40 | 1010.4 |
| 20260503175554 | 19 | 252 | 4.8 | 16.1 | 0.00 | 0.00 | 0.00 | 37 | 1010.4 |
| 20260503175048 | 18 | 331 | 4.8 | 16.1 | 0.00 | 0.00 | 0.00 | 38 | 1010.4 |
| 20260503174557 | 18 | 32 | 3.2 | 14.5 | 0.00 | 0.00 | 0.00 | 39 | 1010.4 |
| 20260503174048 | 18 | 296 | 4.8 | 16.1 | 0.00 | 0.00 | 0.00 | 41 | 1010.6 |
| 20260503173548 | 18 | 259 | 6.4 | 16.1 | 0.00 | 0.00 | 0.00 | 39 | 1010.6 |
| 20260503173058 | 18 | 333 | 3.2 | 16.1 | 0.00 | 0.00 | 0.00 | 38 | 1010.7 |
| 20260503172550 | 18 | 340 | 1.6 | 16.1 | 0.00 | 0.00 | 0.00 | 39 | 1010.7 |
| 20260503172048 | 18 | 327 | 4.8 | 14.5 | 0.00 | 0.00 | 0.00 | 42 | 1010.7 |
| 20260503171552 | 18 | 79 | 3.2 | 16.1 | 0.00 | 0.00 | 0.00 | 42 | 1010.9 |
| 20260503171049 | 18 | 262 | 6.4 | 16.1 | 0.00 | 0.00 | 0.00 | 41 | 1010.9 |
| 20260503170548 | 18 | 283 | 4.8 | 14.5 | 0.00 | 0.00 | 0.00 | 39 | 1011.0 |
| 20260503150550 | 15 | 35 | 3.2 | 12.9 | 0.00 | 0.00 | 0.00 | 49 | 1011.3 |
| 20260503150104 | 15 | 168 | 3.2 | 12.9 | 0.00 | 0.00 | 0.00 | 51 | 1011.3 |